Location: Niedergestelen
(46.3129°N, 7.7822°E)
Time: 06:39:43
(UTC+00:00)

Cosmos 1515 Rocket - Pass Details

Date: 01 December 2020
Orbit: 605 x 631 km, 82.5° (Epoch: 18 January)

Event Time Altitude Azimuth Distance (km) Brightness Sun altitude
Rises 17:13:44 0° 181° (S) 2,870 7.2 -14.9°
Reaches altitude 10° 17:15:56 10° 179° (S) 1,974 6.3 -15.3°
Maximum altitude 17:20:17 71° 97° (E) 660 3.5 -16.0°
Drops below altitude 10° 17:24:42 10° 13° (NNE) 2,006 5.9 -16.8°
Enters shadow 17:25:12 - 13° (NNE) 2,204 6.1 -16.9°
